Location: Waco, TX
(31.5480°N, 97.1670°W)
Time: 11:58:57
(UTC-06:00)

ISS - Pass Details

Date: 11 February 2018
Orbit: 402 x 407 km, 51.6° (Epoch: 25 February)

Event Time Altitude Azimuth Distance (km) Brightness Sun altitude
Rises 12:03:19 0° 232° (SW) 2,304 0.2 43.6°
Reaches altitude 10° 12:05:25 10° 236° (WSW) 1,448 -0.7 43.7°
Maximum altitude 12:08:37 57° 317° (NW) 477 -3.2 43.9°
Drops below altitude 10° 12:11:49 10° 37° (NE) 1,453 -1.2 44.0°
Sets 12:13:56 0° 41° (NE) 2,314 -0.3 44.1°
